When you browse on this site, cookies collect data to enhance your experience and personalize the content and advertising you see.
Visit our Privacy Policy to learn more. By continuing to use the site, you agree to this use of cookies and data.
  • In Latvia
  • List of Countries
  • For 7 days
  • Water Temperature
  • Satellite Maps
  • Weather Map
  • Weather Widgets
  • user-avatar
    Login

    Hourly Weather Piaski

    Today, 20 May, Monday

    Time Temperature Precipitation Wind Pressure Humidity
    00:00 +16°C° 0 mm 3 mps 738 mmHg 95%
    01:00 +16°C° 0 mm 3 mps 738 mmHg 96%
    02:00 +16°C° 0 mm 3 mps 737 mmHg 97%
    03:00 +16°C° 0 mm 3 mps 737 mmHg 97%
    04:00 +15°C° 0 mm 4 mps 737 mmHg 97%
    05:00 +15°C° 0 mm 4 mps 737 mmHg 97%
    06:00 +17°C° 0 mm 4 mps 737 mmHg 93%
    07:00 +19°C° 0 mm 4 mps 737 mmHg 89%
    08:00 +20°C° 0 mm 4 mps 737 mmHg 86%
    09:00 +21°C° 0 mm 4 mps 738 mmHg 79%
    10:00 +24°C° 0 mm 3 mps 738 mmHg 73%
    11:00 +25°C° 0 mm 3 mps 738 mmHg 67%
    12:00 +24°C° 2.8 mm 3 mps 738 mmHg 72%
    13:00 +24°C° 2.8 mm 3 mps 738 mmHg 77%
    14:00 +23°C° 2.8 mm 2 mps 737 mmHg 82%
    15:00 +21°C° 0.8 mm 2 mps 737 mmHg 83%
    16:00 +21°C° 0.8 mm 2 mps 737 mmHg 83%
    17:00 +20°C° 0.8 mm 2 mps 737 mmHg 83%
    18:00 +19°C° 0.2 mm 2 mps 737 mmHg 85%
    19:00 +18°C° 0.2 mm 2 mps 737 mmHg 87%
    20:00 +18°C° 0.2 mm 1 mps 737 mmHg 89%
    21:00 +18°C° 0.1 mm 1 mps 737 mmHg 89%
    22:00 +18°C° 0.1 mm 1 mps 737 mmHg 89%
    23:00 +16°C° 0.1 mm 1 mps 737 mmHg 89%

    Tomorrow, 21 May, Tuesday

    Time Temperature Precipitation Wind Pressure Humidity
    00:00 +16°C° 0.2 mm 1 mps 737 mmHg 90%
    01:00 +16°C° 0.2 mm 2 mps 737 mmHg 90%
    02:00 +15°C° 0.2 mm 2 mps 737 mmHg 91%
    03:00 +15°C° 0 mm 2 mps 737 mmHg 91%
    04:00 +14°C° 0 mm 2 mps 737 mmHg 92%
    05:00 +14°C° 0 mm 2 mps 737 mmHg 92%
    06:00 +14°C° 0 mm 2 mps 737 mmHg 90%
    07:00 +14°C° 0 mm 3 mps 737 mmHg 89%
    08:00 +16°C° 0 mm 3 mps 737 mmHg 87%
    09:00 +14°C° 1.6 mm 4 mps 737 mmHg 89%
    10:00 +14°C° 1.6 mm 4 mps 737 mmHg 90%
    11:00 +14°C° 1.6 mm 5 mps 737 mmHg 92%
    12:00 +14°C° 0.3 mm 4 mps 737 mmHg 91%
    13:00 +14°C° 0.3 mm 4 mps 737 mmHg 90%
    14:00 +14°C° 0.3 mm 4 mps 738 mmHg 89%
    15:00 +15°C° 0.5 mm 4 mps 738 mmHg 88%
    16:00 +15°C° 0.5 mm 4 mps 738 mmHg 87%
    17:00 +15°C° 0.5 mm 4 mps 738 mmHg 85%
    18:00 +15°C° 0.6 mm 4 mps 738 mmHg 86%
    19:00 +14°C° 0.6 mm 3 mps 738 mmHg 87%
    20:00 +14°C° 0.6 mm 3 mps 738 mmHg 88%
    21:00 +13°C° 0.1 mm 3 mps 739 mmHg 89%
    22:00 +13°C° 0.1 mm 3 mps 739 mmHg 90%
    23:00 +14°C° 0.1 mm 2 mps 739 mmHg 92%

    Day after tomorrow, 22 May, Wednesday

    Time Temperature Precipitation Wind Pressure Humidity
    00:00 +12°C° 0 mm 3 mps 739 mmHg 92%
    01:00 +12°C° 0 mm 3 mps 739 mmHg 92%
    02:00 +12°C° 0 mm 3 mps 739 mmHg 92%
    03:00 +13°C° 0 mm 2 mps 739 mmHg 92%
    04:00 +13°C° 0 mm 2 mps 739 mmHg 92%
    05:00 +12°C° 0 mm 2 mps 739 mmHg 92%
    06:00 +13°C° 0 mm 3 mps 739 mmHg 88%
    07:00 +16°C° 0 mm 3 mps 740 mmHg 83%
    08:00 +17°C° 0 mm 3 mps 740 mmHg 78%
    09:00 +18°C° 0.1 mm 4 mps 740 mmHg 75%
    10:00 +19°C° 0.1 mm 5 mps 740 mmHg 71%
    11:00 +20°C° 0.1 mm 6 mps 740 mmHg 67%
    12:00 +20°C° 0 mm 6 mps 740 mmHg 67%
    13:00 +20°C° 0 mm 7 mps 740 mmHg 66%
    14:00 +20°C° 0 mm 7 mps 740 mmHg 65%
    15:00 +20°C° 0.1 mm 6 mps 740 mmHg 66%
    16:00 +20°C° 0.1 mm 6 mps 739 mmHg 68%
    17:00 +20°C° 0.1 mm 5 mps 739 mmHg 70%
    18:00 +19°C° 0.3 mm 4 mps 739 mmHg 75%
    19:00 +17°C° 0.3 mm 3 mps 740 mmHg 81%
    20:00 +16°C° 0.3 mm 3 mps 740 mmHg 86%
    21:00 +14°C° 0.1 mm 3 mps 740 mmHg 88%
    22:00 +14°C° 0.1 mm 3 mps 740 mmHg 91%
    23:00 +13°C° 0.1 mm 3 mps 740 mmHg 93%

    23 May, Thursday

    Time Temperature Precipitation Wind Pressure Humidity
    00:00 +13°C° 0 mm 3 mps 740 mmHg 93%
    01:00 +13°C° 0 mm 3 mps 740 mmHg 93%
    02:00 +13°C° 0 mm 3 mps 740 mmHg 94%
    03:00 +12°C° 0 mm 3 mps 740 mmHg 94%
    04:00 +13°C° 0 mm 2 mps 740 mmHg 94%
    05:00 +12°C° 0 mm 2 mps 740 mmHg 95%
    06:00 +12°C° 0 mm 3 mps 741 mmHg 92%
    07:00 +13°C° 0 mm 4 mps 741 mmHg 88%
    08:00 +14°C° 0 mm 4 mps 741 mmHg 85%
    09:00 +15°C° 0.1 mm 5 mps 741 mmHg 84%
    10:00 +15°C° 0.1 mm 6 mps 741 mmHg 83%
    11:00 +15°C° 0.1 mm 6 mps 742 mmHg 82%
    12:00 +14°C° 0.5 mm 7 mps 742 mmHg 85%
    13:00 +14°C° 0.5 mm 7 mps 742 mmHg 87%
    14:00 +12°C° 0.5 mm 7 mps 742 mmHg 90%
    15:00 +11°C° 0.1 mm 7 mps 742 mmHg 91%
    16:00 +11°C° 0.1 mm 7 mps 742 mmHg 91%
    17:00 +10°C° 0.1 mm 7 mps 742 mmHg 91%
    18:00 +10°C° 0.1 mm 7 mps 742 mmHg 92%
    19:00 +9°C° 0.1 mm 7 mps 743 mmHg 92%
    20:00 +9°C° 0.1 mm 7 mps 743 mmHg 92%
    21:00 +9°C° 0.3 mm 7 mps 743 mmHg 93%
    22:00 +9°C° 0.3 mm 6 mps 743 mmHg 94%
    23:00 +8°C° 0.3 mm 6 mps 743 mmHg 95%

    24 May, Friday

    Time Temperature Precipitation Wind Pressure Humidity
    00:00 +9°C° 0.6 mm 6 mps 743 mmHg 95%
    01:00 +9°C° 0.6 mm 6 mps 743 mmHg 95%
    02:00 +9°C° 0.6 mm 6 mps 743 mmHg 95%
    03:00 +9°C° 0.3 mm 6 mps 743 mmHg 95%
    04:00 +8°C° 0.3 mm 5 mps 742 mmHg 95%
    05:00 +8°C° 0.3 mm 5 mps 742 mmHg 94%
    06:00 +8°C° 0.1 mm 5 mps 742 mmHg 94%
    07:00 +8°C° 0.1 mm 5 mps 742 mmHg 93%
    08:00 +8°C° 0.1 mm 5 mps 742 mmHg 92%
    09:00 +9°C° 0.1 mm 5 mps 742 mmHg 91%
    10:00 +9°C° 0.1 mm 5 mps 742 mmHg 90%
    11:00 +11°C° 0.1 mm 4 mps 742 mmHg 88%
    12:00 +11°C° 0 mm 4 mps 742 mmHg 85%
    13:00 +12°C° 0 mm 5 mps 742 mmHg 82%
    14:00 +13°C° 0 mm 5 mps 741 mmHg 79%
    15:00 +13°C° 0 mm 4 mps 741 mmHg 78%
    16:00 +14°C° 0 mm 4 mps 741 mmHg 76%
    17:00 +14°C° 0 mm 3 mps 740 mmHg 75%
    18:00 +13°C° 0 mm 3 mps 740 mmHg 78%
    19:00 +13°C° 0 mm 2 mps 740 mmHg 82%
    20:00 +12°C° 0 mm 1 mps 740 mmHg 85%
    21:00 +12°C° 0 mm 1 mps 740 mmHg 87%
    22:00 +10°C° 0 mm 2 mps 740 mmHg 88%
    23:00 +9°C° 0 mm 2 mps 740 mmHg 90%

    25 May, Saturday

    Time Temperature Precipitation Wind Pressure Humidity
    00:00 +10°C° 0 mm 1 mps 739 mmHg 89%
    01:00 +10°C° 0 mm 1 mps 739 mmHg 89%
    02:00 +10°C° 0 mm 1 mps 739 mmHg 88%
    03:00 +10°C° 0 mm 1 mps 739 mmHg 87%
    04:00 +9°C° 0 mm 2 mps 739 mmHg 86%
    05:00 +10°C° 0 mm 2 mps 739 mmHg 85%
    06:00 +12°C° 0 mm 2 mps 739 mmHg 83%
    07:00 +13°C° 0 mm 2 mps 739 mmHg 81%
    08:00 +15°C° 0 mm 2 mps 739 mmHg 78%
    09:00 +16°C° 0.1 mm 2 mps 739 mmHg 76%
    10:00 +18°C° 0.1 mm 2 mps 739 mmHg 73%
    11:00 +19°C° 0.1 mm 3 mps 739 mmHg 70%
    12:00 +19°C° 0.7 mm 3 mps 738 mmHg 71%
    13:00 +20°C° 0.7 mm 3 mps 738 mmHg 71%
    14:00 +20°C° 0.7 mm 3 mps 738 mmHg 72%
    15:00 +20°C° 0.8 mm 3 mps 738 mmHg 73%
    16:00 +20°C° 0.8 mm 3 mps 738 mmHg 74%
    17:00 +20°C° 0.8 mm 3 mps 738 mmHg 74%
    18:00 +19°C° 0.4 mm 2 mps 738 mmHg 78%
    19:00 +17°C° 0.4 mm 2 mps 738 mmHg 82%
    20:00 +16°C° 0.4 mm 1 mps 738 mmHg 86%
    21:00 +15°C° 0 mm 1 mps 739 mmHg 88%
    22:00 +14°C° 0 mm 1 mps 739 mmHg 89%
    23:00 +14°C° 0 mm 2 mps 739 mmHg 91%
    Show more